User: anonymous   Login
Location: Unspecified
(0.0000°N, 0.0000°E)
Time: 16:37:39
(UTC+00:00)
Language:

COSMOS 2439 - Orbit

View from above orbital plane
View from above orbital plane
View from above satellite
View from above satellite

Ground track
Ground track

The orbit data is extracted from the following two-line orbital elements,

1 32956U 08025D   17204.90389735 +.00000009 +00000-0 -52821-5 0  9991
2 32956 082.5044 217.9569 0019835 204.6697 155.3442 12.43000926415987
Epoch (UTC): 23 July 2017 21:41:36
Eccentricity: 0.0019835
inclination: 82.5044°
perigee height: 1478 km
apogee height: 1509 km
right ascension of ascending node: 217.9569°
argument of perigee: 204.6697°
revolutions per day: 12.43000926
mean anomaly at epoch: 155.3442°
orbit number at epoch: 41598

The dashed part of the orbit path shows where the satellite is in the earth's shadow,  

DLR